FENGYUN 1C DEB, 30817

Orbit data source: Space-Track

FENGYUN 1C DEB, 30817 is space debris in SSO originally from a launch on Mon, 10 May 1999 UTC launched from the Taiyaun Space Center, China (TSC). Fengyun 1C debris stems from the Chinese weather satellite Fengyun-1C, which was intentionally destroyed by a Chinese anti-satellite missile in 2007. This event dramatically increased the amount of space debris, with thousands of trackable fragments posing hazards to satellites and human spaceflight. The Fengyun 1C debris cloud has become a focal point in discussions about space sustainability and the need for international regulations to prevent the creation of new debris.

Loading next visibility...
Identifier
30817, 1999-025AVB
Orbit
SSO
Country
Flag of CNCN / PRC
Related business
Manufacturer
Unknown
Mission
Spacecraft
Bus & Motor
Unknown
Mass
Unknown
Launch date (UTC)
1999-05-10 (27 years ago)
Launch vehicle
Unknown
Launch site
Taiyaun Space Center, China (TSC)
Object type
Payload
Rocket body
Debris
Shape & HBR
Unknown shape, 0.1 m
Radar Cross Section
Medium (>0.1 m² and <1 m²)

Expand to show TLE details & history
Last TLE update: 1 week ago

TLE from 1 week ago
0 FENGYUN 1C DEB
1 30817U 99025AVB 26153.72920745  .00000265  00000-0  20211-3 0  9999
2 30817  98.7842 142.3739 0059222 124.4879 236.1900 14.00835821983174
Epoch: 2026-06-02T17:30Z
TLE epoch observation values (Epoch: 2026-06-02T17:30:03.523Z)
Latitude
-0.00002°
Longitude
-11.33878°
Altitude
917.922 km
Speed
7.381 km/s
True Right ascension
09h 29m 29s
True Declination
0° 00' 00"
Sunlit
Object was in daylight at epoch
Visualization orbit readout
Latitude
Unknown
Longitude
Unknown
Altitude
Unknown
Speed
Unknown
Apparent Right ascension
Unknown
Apparent Declination
Unknown
Sunlit
N/A
Visualization observer readout
Local Sidereal Time
21:58:33
Azimuth
Unknown
Elevation
Unknown
Doppler factor
Unknown
Orbital elements
Apogee altitude
931.122 km
Perigee altitude
845.058 km
Semi-major axis
7,266.227 km
Eccentricity
0.00592
Inclination
98.7842°
RAAN
142.3739°
Arg. of periapsis
124.4879°
True anomaly
235.62845°
Mean anomaly
236.19°
Eccentric anomaly
235.909°
Mean motion
3.50413 °/min
Orbital period
102.74 mins
BSTAR
0.00020211
Loading maneuver chart data...
Computing Atmospheric mass density...

Documentation

Showing up to 5 results
|